WetterOnline ( https://www.wetteronline.de )

Wetter aktuell Podgorica

Aktuelles Wetter: Podgorica-Golubovci aerodrom (33m)

6-stündlich | Neueste Meldungen
Ortszeit Temperatur Wetter
Sa, 02.03. 13:00 15.2° C leicht bewölkt
Sa, 02.03. 7:00 9.8° C leichter Regen
Sa, 02.03. 1:00 2.1° C leicht bewölkt
Fr, 01.03. 19:00 13.5° C bewölkt
Fr, 01.03. 13:00 17.3° C leicht bewölkt
Fr, 01.03. 7:00 -° C leicht bewölkt
Fr, 01.03. 1:00 12.8° C leichter Regen
Do, 29.02. 19:00 16.0° C wolkig
Ortszeit Temperatur Wetter
Sa, 02.03. 15:00 15.6° C wolkig
Sa, 02.03. 14:00 15.5° C wolkig
Sa, 02.03. 13:00 15.2° C leicht bewölkt
Sa, 02.03. 12:00 14.8° C leicht bewölkt
Sa, 02.03. 11:00 13.6° C leicht bewölkt
Sa, 02.03. 10:00 12.3° C wolkig
Sa, 02.03. 9:00 11.9° C leichter Regen
Ortszeit Relative Feuchte Sichtweite
Sa, 02.03. 13:00 66% 10 km
Sa, 02.03. 7:00 92% 10 km
Sa, 02.03. 1:00 66% 10 km
Fr, 01.03. 19:00 73% 10 km
Fr, 01.03. 13:00 54% 10 km
Fr, 01.03. 7:00 - 10 km
Fr, 01.03. 1:00 95% 10 km
Do, 29.02. 19:00 67% 10 km
Ortszeit Relative Feuchte Sichtweite
Sa, 02.03. 15:00 61% 10 km
Sa, 02.03. 14:00 64% 10 km
Sa, 02.03. 13:00 66% 10 km
Sa, 02.03. 12:00 66% 10 km
Sa, 02.03. 11:00 69% 10 km
Sa, 02.03. 10:00 80% 10 km
Sa, 02.03. 9:00 88% 10 km
Ortszeit Niederschlagsmenge Niederschlagsart
Sa, 02.03. 13:00 2 l/m2 in 6 Std. -
Sa, 02.03. 7:00 0.4 l/m2 in 12 Std. Regen
Sa, 02.03. 1:00 0.1 l/m2 in 6 Std. -
Fr, 01.03. 19:00 0.0 l/m2 in 12 Std. -
Fr, 01.03. 13:00 0.0 l/m2 in 6 Std. -
Fr, 01.03. 7:00 0.0 l/m2 in 12 Std. -
Fr, 01.03. 1:00 2 l/m2 in 6 Std. Regen
Do, 29.02. 19:00 0.0 l/m2 in 12 Std. -
Ortszeit Niederschlagsmenge Niederschlagsart
Sa, 02.03. 15:00 keine Meldung -
Sa, 02.03. 14:00 keine Meldung -
Sa, 02.03. 13:00 keine Meldung -
Sa, 02.03. 12:00 keine Meldung -
Sa, 02.03. 11:00 keine Meldung -
Sa, 02.03. 10:00 keine Meldung -
Sa, 02.03. 9:00 keine Meldung -
Ortszeit Stärke Spitze Richtung
km/h Bft. km/h Grad Sektor
Sa, 02.03. 13:00 7 2 - 160° S
Sa, 02.03. 7:00 4 1 - 300° NW
Sa, 02.03. 1:00 0 0 - - -
Fr, 01.03. 19:00 0 0 - - -
Fr, 01.03. 13:00 4 1 - 130° SO
Fr, 01.03. 7:00 4 1 - 340° N
Fr, 01.03. 1:00 0 0 - - -
Do, 29.02. 19:00 4 1 - 110° O
Ortszeit Stärke Spitze Richtung
km/h Bft. km/h Grad Sektor
Sa, 02.03. 15:00 7 2 - 160° S
Sa, 02.03. 14:00 11 2 - 170° S
Sa, 02.03. 13:00 7 2 - 160° S
Sa, 02.03. 12:00 4 1 - 140° SO
Sa, 02.03. 11:00 4 1 - 110° O
Sa, 02.03. 10:00 4 1 - 230° SW
Sa, 02.03. 9:00 4 1 - 230° SW
Ortszeit Untergrenze Bedeckung Gattung
total tief tief mittel hoch
Sa, 02.03. 13:00 900 m 5/8 3/8 Cu Ac -
Sa, 02.03. 7:00 1020 m 8/8 4/8 Cu Ns -
Sa, 02.03. 1:00 2400 m 2/8 3/8 - Ac Ci
Fr, 01.03. 19:00 1200 m 7/8 1/8 Cu Ac Cs
Fr, 01.03. 13:00 990 m 6/8 3/8 Cu Ac Cs
Fr, 01.03. 7:00 - 3/8 - - - Ci
Fr, 01.03. 1:00 1200 m 8/8 3/8 Cu Ns -
Do, 29.02. 19:00 1500 m 7/8 2/8 Cu Ac Ci
Ortszeit Bedeckungsgrad in Achtel und Wolkenuntergrenze
Sa, 02.03. 15:00 2(990m) 4(2700m)
Sa, 02.03. 14:00 2(990m) 4(2700m)
Sa, 02.03. 13:00 1(900m) 3(1500m)
Sa, 02.03. 12:00 1(900m) 3(1500m)
Sa, 02.03. 11:00 1(900m) 3(1500m)
Sa, 02.03. 10:00 1(900m) 3(1500m) 5(2400m)
Sa, 02.03. 9:00 1(900m) 3(1500m) 6(2400m)
Ortszeit Luftdruck NN (hPa) Tendenz (hPa in 3 Std.)
Sa, 02.03. 13:00 1013 - 0,4
Sa, 02.03. 7:00 1012 + 1,7
Sa, 02.03. 1:00 1026 - 0,2
Fr, 01.03. 19:00 1010 + 0,4
Fr, 01.03. 13:00 1010 - 1,2
Fr, 01.03. 7:00 - - 0,6
Fr, 01.03. 1:00 1011 + 0,5
Do, 29.02. 19:00 1010 - 1,2
Ortszeit Luftdruck NN (hPa) Tendenz (hPa in 3 Std.)
Sa, 02.03. 15:00 1013 - 0,5
Sa, 02.03. 14:00 1013 - 0,6
Sa, 02.03. 13:00 1013 - 0,4
Sa, 02.03. 12:00 1014 + 0,5
Sa, 02.03. 11:00 1014 + 1,0
Sa, 02.03. 10:00 1013 + 1,3
Sa, 02.03. 9:00 1013 + 1,5
Ortszeit Schneehöhe (cm)
Sa, 02.03. 13:00 -
Sa, 02.03. 7:00 0
Sa, 02.03. 1:00 -
Fr, 01.03. 19:00 -
Fr, 01.03. 13:00 -
Fr, 01.03. 7:00 0
Fr, 01.03. 1:00 -
Do, 29.02. 19:00 -
Ortszeit Schneehöhe (cm)
Sa, 02.03. 15:00 -
Sa, 02.03. 14:00 -
Sa, 02.03. 13:00 -
Sa, 02.03. 12:00 -
Sa, 02.03. 11:00 -
Sa, 02.03. 10:00 -
Sa, 02.03. 9:00 -
Link zu dieser Seite / Seite empfehlen

Das Wetter in ...